Wind_Speed
12 12 11 10 10 9 9 9 9 8 8 7 7 6 5 5 4 4 4 3 3 4 4 5 5 5 5 5 5 6 6 6 6 6 7 7 8 8 8 7 8 8 8
12 12 11 10 10 9 9 9 9 8 8 7 7 6 6 5 4 4 4 3 3 4 4 5 5 5 5 5 5 6 6 6 7 7 7 8 8 9 9 9 9 8 8
12 12 11 11 10 9 9 9 9 8 8 7 7 7 6 6 6 5 4 4 4 4 4 5 5 4 5 5 6 6 7 7 8 7 8 8 9 9 10 9 9 9 8
12 12 11 10 10 9 9 9 9 8 8 7 7 6 6 6 6 6 5 5 4 4 5 5 5 5 5 5 6 7 7 7 7 8 8 8 9 9 10 10 10 10 9
12 11 11 11 10 10 9 9 8 8 7 7 7 7 6 6 6 6 6 5 5 5 5 5 5 5 5 6 6 7 7 7 8 8 8 8 9 9 10 10 10 10 10
12 11 11 10 11 10 10 9 9 8 8 7 7 7 7 6 6 6 6 6 5 5 5 5 5 5 5 6 7 7 8 7 8 8 9 9 9 10 10 9 10 10 10
11 11 10 10 10 10 10 9 9 9 8 8 7 7 7 7 7 7 6 6 4 4 4 4 4 4 5 5 6 7 8 8 9 9 9 9 10 10 10 10 10 10 10
11 11 10 10 10 10 10 10 9 9 8 8 7 7 7 7 7 7 6 5 3 3 3 4 4 4 4 5 5 6 7 8 9 9 9 9 9 9 10 9 9 9 9
11 10 10 10 10 10 10 9 10 9 8 8 8 7 8 8 7 7 6 4 3 3 3 3 4 5 5 5 6 6 7 7 8 8 8 7 7 8 8 9 9 9 9
10 10 10 10 10 10 9 9 9 9 8 8 8 8 8 8 7 7 6 5 4 3 3 4 5 5 5 5 5 6 6 7 7 7 6 6 6 6 6 7 8 9 9
9 9 10 10 10 10 10 9 9 9 9 8 8 8 8 8 7 6 6 6 5 4 4 4 5 5 5 5 5 4 5 5 5 6 6 6 6 6 6 7 8 8 10
9 9 9 9 10 10 10 10 9 9 9 8 8 8 7 7 7 6 6 6 5 5 5 5 5 5 4 4 3 3 4 4 4 5 5 6 6 6 7 7 7 8 8
8 9 9 9 10 10 10 10 9 9 9 8 8 7 7 7 6 6 5 5 5 5 5 5 5 5 4 4 4 4 4 5 4 4 5 5 6 6 6 7 7 7 8
8 8 8 9 9 10 10 10 9 9 8 8 8 7 7 6 6 5 5 5 5 5 5 5 5 5 5 4 5 5 4 5 6 6 5 5 5 6 6 6 6 6 8
7 7 8 9 10 10 10 10 10 10 9 9 8 8 7 7 6 5 5 6 5 5 5 4 4 5 5 5 5 5 5 5 5 7 7 6 6 6 7 6 6 6 7
7 7 8 9 10 10 10 10 10 11 10 9 8 8 7 7 6 6 5 5 5 5 4 4 4 5 5 5 5 5 6 6 5 6 7 7 6 6 7 7 7 7 7
6 7 8 9 10 10 11 11 10 11 10 9 8 8 7 7 6 6 6 5 5 5 5 5 5 5 5 5 6 6 6 6 7 6 7 7 7 6 7 7 7 7 6
6 7 8 9 10 11 12 11 10 11 10 10 9 8 8 7 6 6 6 5 5 5 5 5 5 5 5 6 6 6 6 6 7 7 7 8 7 8 8 7 6 7 8
7 7 8 9 10 11 11 11 11 11 10 9 9 8 8 7 6 5 5 5 5 4 4 4 5 4 5 5 5 5 5 5 5 5 6 6 7 7 8 7 7 8 7
8 8 8 9 10 10 11 11 10 10 10 10 9 8 8 7 6 5 4 4 4 5 5 5 5 5 5 4 4 4 4 4 4 5 4 5 6 7 8 8 9 8 8
8 8 9 10 10 10 10 10 10 10 10 9 9 8 8 7 6 6 5 4 5 5 5 5 5 5 5 4 4 4 4 4 4 5 6 6 6 7 8 8 8 8 8
9 10 10 10 11 10 10 10 10 11 10 10 9 9 8 7 7 6 6 5 5 5 5 5 5 5 4 4 5 5 5 5 5 6 6 6 7 7 8 8 8 8 9
10 10 11 11 11 10 10 10 11 11 11 10 9 9 9 8 8 8 7 6 6 6 6 6 6 5 5 5 6 5 5 6 6 6 6 7 7 8 9 9 9 9 9
11 11 11 11 11 11 11 11 11 11 10 10 10 10 10 9 8 8 8 7 7 7 7 6 6 6 6 6 6 6 6 6 7 7 7 7 7 8 9 9 9 9 9
12 12 12 12 12 12 12 12 11 11 10 10 11 11 10 10 9 8 8 8 7 7 7 7 7 7 7 7 7 7 7 7 7 7 7 7 8 8 9 9 10 10 10
12 12 13 13 13 14 13 13 12 12 12 12 11 11 11 10 10 10 9 8 8 8 7 7 8 7 7 7 8 8 8 8 8 8 8 8 8 9 9 10 10 10 10
Wind_Direction
15 14 13 12 14 17 22 23 26 26 26 24 20 19 15 10 360 348 343 336 323 311 305 305 299 292 279 269 259 252 253 252 253 248 244 243 240 237 236 232 235 237 239
11 11 11 11 11 12 16 19 24 25 25 24 21 18 16 11 3 354 345 334 324 316 312 309 298 290 276 263 255 252 257 259 260 254 249 244 246 244 240 238 238 241 242
7 7 8 8 9 11 14 17 21 22 23 23 21 20 16 10 2 351 340 331 317 309 305 299 298 292 273 259 255 256 258 260 262 255 249 243 245 244 239 244 244 238 240
5 5 7 8 9 13 13 13 17 20 20 19 19 18 14 7 359 351 339 327 314 303 299 295 290 284 274 265 258 255 256 258 262 254 250 246 247 244 239 247 249 243 246
3 4 7 10 11 15 17 14 16 17 17 16 15 14 10 4 357 349 342 328 312 300 300 303 292 282 274 270 264 259 258 257 260 249 247 247 247 244 245 252 249 245 246
2 6 10 13 15 17 19 17 14 14 13 11 8 7 5 360 354 346 337 325 314 305 307 308 303 294 280 276 273 266 261 259 256 254 251 249 247 247 248 248 248 247 245
1 6 11 14 15 16 17 15 14 11 11 8 5 3 357 355 349 341 335 324 312 311 313 317 315 308 298 291 282 273 264 259 257 256 252 253 255 252 248 249 249 244 242
360 4 9 11 11 12 12 12 10 8 9 8 5 4 359 355 352 348 343 343 329 314 310 318 317 313 300 290 285 279 272 265 260 256 257 256 257 255 247 243 243 241 241
357 0 4 6 6 8 8 8 6 7 11 11 7 3 357 352 350 348 346 351 347 330 313 315 319 315 302 284 280 281 275 268 264 254 259 256 253 258 251 246 246 249 248
357 360 2 3 3 2 3 5 6 7 10 8 3 358 353 349 346 344 344 342 336 330 323 312 314 316 311 294 287 277 274 268 267 260 259 252 252 256 257 255 253 252 247
357 358 0 2 3 3 3 3 5 5 2 360 357 355 352 349 346 344 337 333 332 324 318 310 309 312 309 293 285 269 262 263 259 255 256 256 255 255 263 256 254 252 250
353 355 360 2 2 1 0 359 360 358 356 352 351 352 350 350 348 348 343 338 333 325 321 312 308 306 307 294 282 271 261 265 260 256 253 251 249 247 252 252 258 260 249
355 354 356 358 359 358 358 357 355 353 351 350 346 345 346 347 348 345 342 338 332 324 322 317 314 304 300 292 275 277 262 258 254 252 250 251 256 255 252 257 265 271 255
351 352 353 355 355 353 353 352 352 351 349 347 343 341 340 339 338 337 336 332 329 325 324 322 312 304 298 295 280 271 268 250 248 249 248 254 259 260 261 267 266 268 257
345 349 352 352 351 348 347 346 350 350 345 344 339 336 334 333 332 330 329 326 322 318 317 319 321 310 299 297 291 269 265 254 250 248 251 254 256 263 266 268 274 271 261
335 342 346 347 349 346 345 344 345 345 343 342 338 332 329 329 330 323 326 326 322 317 315 319 319 321 313 302 297 289 277 264 258 250 251 252 254 258 264 268 274 272 264
330 335 336 337 341 342 343 342 341 339 336 337 337 331 326 325 324 322 320 320 319 318 316 315 312 308 309 307 300 293 286 268 266 257 247 247 252 249 255 265 268 265 265
316 323 326 328 334 338 341 340 338 336 332 330 332 330 330 323 314 314 314 316 313 311 309 309 306 306 305 304 301 294 289 277 260 258 248 243 247 247 247 255 263 264 265
308 316 322 325 329 332 337 337 336 333 332 331 329 329 329 326 318 314 312 311 306 304 304 304 299 298 301 305 303 299 297 299 276 257 248 246 249 248 246 255 264 258 260
306 313 319 322 321 321 327 330 331 332 332 327 323 322 320 318 315 316 314 312 304 302 301 298 292 291 296 300 297 298 298 294 288 281 265 258 252 254 257 259 262 260 262
305 310 314 319 318 317 320 325 326 328 329 325 320 317 317 314 309 312 315 306 300 298 297 295 293 291 291 287 287 289 295 293 289 284 281 275 268 267 267 267 269 267 263
301 304 305 311 313 312 312 317 322 321 324 325 319 315 311 307 303 303 303 301 298 299 297 297 298 296 288 284 289 286 283 288 290 288 280 280 277 276 277 278 277 275 265
295 299 302 303 303 303 304 308 313 317 319 322 323 319 314 307 302 297 297 292 290 290 292 291 292 290 284 281 284 283 280 288 285 286 283 284 278 275 274 272 272 273 272
286 292 294 295 297 297 296 299 304 308 311 313 314 314 313 308 300 295 294 292 289 287 287 289 292 282 279 278 279 279 278 282 288 291 289 288 284 279 274 273 275 273 269
281 285 290 292 291 291 291 292 296 300 302 302 305 305 304 301 299 293 290 289 287 282 281 286 285 277 274 272 272 271 272 279 286 288 290 288 282 279 278 280 278 276 271
279 282 286 287 287 288 289 290 292 294 295 295 298 299 299 295 290 288 287 286 284 279 277 283 283 279 275 271 270 271 274 276 280 282 284 285 284 283 283 283 279 276 268
Height
5882 5880 5879 5878 5876 5875 5874 5873 5872 5872 5871 5871 5871 5870 5870 5870 5870 5871 5871 5871 5871 5871 5871 5871 5871 5871 5871 5872 5872 5873 5873 5874 5874 5875 5876 5876 5877 5878 5879 5879 5880 5881 5882
5882 5881 5880 5878 5877 5876 5875 5873 5873 5872 5871 5871 5870 5870 5870 5870 5870 5870 5870 5870 5870 5870 5870 5870 5870 5870 5871 5871 5871 5872 5872 5873 5874 5874 5875 5875 5876 5877 5877 5878 5879 5880 5881
5883 5881 5880 5878 5877 5875 5874 5874 5873 5872 5871 5871 5870 5870 5870 5870 5870 5869 5869 5869 5869 5869 5869 5869 5869 5869 5870 5870 5870 5871 5871 5872 5872 5873 5874 5874 5875 5875 5876 5877 5878 5878 5879
5883 5882 5880 5878 5877 5875 5874 5873 5872 5872 5871 5871 5870 5870 5870 5869 5869 5869 5869 5868 5868 5868 5868 5868 5868 5868 5868 5869 5869 5870 5870 5871 5871 5872 5872 5873 5873 5874 5874 5876 5876 5877 5878
5884 5882 5880 5878 5877 5875 5874 5873 5872 5872 5871 5871 5870 5870 5869 5869 5868 5868 5868 5867 5867 5867 5867 5867 5867 5867 5867 5868 5868 5868 5869 5869 5870 5870 5871 5871 5872 5873 5873 5874 5875 5875 5876
5884 5882 5880 5879 5877 5876 5874 5873 5872 5872 5871 5871 5870 5870 5869 5869 5868 5867 5866 5866 5865 5866 5866 5866 5866 5866 5866 5866 5867 5867 5867 5868 5868 5869 5869 5870 5871 5871 5872 5873 5874 5874 5875
5884 5882 5880 5879 5877 5876 5875 5874 5873 5872 5871 5870 5870 5869 5869 5868 5867 5866 5865 5863 5863 5864 5865 5865 5865 5865 5865 5865 5865 5865 5866 5866 5866 5867 5868 5868 5869 5870 5870 5871 5872 5872 5873
5884 5882 5880 5879 5878 5876 5875 5874 5873 5872 5871 5870 5870 5869 5868 5868 5867 5866 5863 5861 5861 5863 5864 5864 5864 5864 5864 5864 5863 5863 5864 5864 5864 5865 5866 5867 5867 5868 5868 5869 5870 5871 5871
5883 5882 5880 5879 5878 5876 5875 5874 5873 5871 5871 5870 5869 5869 5868 5867 5866 5865 5864 5862 5862 5863 5863 5863 5863 5863 5863 5862 5862 5862 5862 5862 5863 5863 5864 5865 5865 5866 5867 5867 5868 5869 5870
5883 5882 5880 5879 5878 5876 5875 5874 5873 5871 5870 5870 5869 5868 5867 5867 5866 5865 5864 5863 5862 5862 5862 5862 5862 5862 5861 5861 5861 5861 5861 5861 5861 5862 5863 5863 5864 5865 5866 5866 5867 5868 5868
5883 5882 5880 5879 5877 5876 5875 5874 5872 5871 5870 5869 5868 5868 5867 5866 5865 5864 5863 5862 5862 5862 5861 5861 5861 5860 5860 5860 5860 5860 5860 5860 5860 5861 5861 5862 5863 5864 5864 5865 5866 5866 5867
5883 5881 5880 5879 5877 5876 5875 5873 5872 5871 5870 5869 5868 5867 5866 5865 5864 5863 5862 5862 5861 5861 5861 5860 5860 5859 5859 5859 5859 5859 5859 5859 5860 5860 5860 5861 5862 5862 5863 5863 5864 5865 5865
5882 5881 5880 5878 5877 5876 5874 5873 5872 5870 5869 5868 5867 5866 5865 5864 5863 5863 5862 5861 5860 5860 5860 5859 5859 5858 5858 5858 5858 5858 5858 5858 5858 5859 5860 5860 5860 5861 5862 5862 5862 5863 5863
5881 5880 5879 5878 5876 5875 5874 5872 5871 5870 5869 5867 5866 5865 5864 5863 5863 5862 5861 5860 5860 5859 5859 5858 5858 5857 5857 5857 5856 5856 5856 5856 5857 5858 5858 5859 5859 5860 5860 5860 5861 5861 5862
5880 5879 5878 5877 5876 5875 5873 5872 5871 5869 5868 5866 5865 5864 5863 5862 5862 5861 5860 5859 5858 5858 5858 5857 5857 5857 5856 5856 5855 5855 5855 5855 5855 5856 5857 5858 5858 5859 5859 5859 5860 5860 5860
5880 5879 5877 5876 5875 5874 5872 5871 5870 5869 5867 5866 5864 5863 5862 5861 5860 5860 5859 5858 5857 5857 5856 5856 5856 5856 5855 5855 5854 5854 5854 5854 5854 5854 5855 5856 5857 5857 5857 5858 5858 5858 5858
5879 5877 5876 5875 5874 5873 5871 5870 5869 5868 5866 5865 5863 5862 5861 5860 5859 5858 5858 5857 5856 5856 5855 5855 5855 5855 5854 5854 5853 5853 5853 5853 5853 5853 5854 5855 5855 5856 5856 5857 5857 5857 5857
5877 5876 5875 5874 5873 5872 5870 5869 5868 5866 5865 5863 5862 5860 5859 5859 5858 5857 5856 5856 5855 5855 5854 5854 5854 5853 5853 5853 5852 5852 5851 5851 5852 5852 5852 5853 5854 5854 5855 5855 5855 5855 5855
5876 5875 5874 5873 5872 5871 5870 5868 5867 5865 5864 5862 5861 5859 5858 5857 5856 5856 5855 5854 5854 5853 5853 5853 5852 5852 5852 5851 5851 5850 5850 5850 5850 5850 5851 5851 5852 5852 5853 5853 5853 5854 5854
5874 5873 5872 5871 5870 5869 5868 5867 5865 5864 5862 5861 5860 5858 5857 5856 5855 5854 5854 5853 5852 5852 5852 5851 5851 5851 5850 5850 5850 5850 5849 5849 5849 5849 5849 5850 5850 5851 5851 5851 5852 5852 5852
5872 5871 5870 5870 5869 5868 5867 5865 5864 5863 5861 5860 5858 5857 5856 5855 5854 5853 5852 5851 5851 5851 5850 5850 5850 5849 5849 5849 5849 5849 5849 5848 5848 5848 5848 5848 5849 5849 5849 5850 5850 5850 5850
5870 5870 5869 5868 5867 5866 5865 5864 5862 5861 5860 5858 5857 5855 5854 5853 5852 5851 5850 5850 5849 5849 5849 5848 5848 5848 5848 5847 5847 5847 5848 5848 5847 5847 5847 5847 5847 5847 5847 5848 5848 5848 5848
5868 5867 5867 5866 5865 5864 5863 5861 5860 5859 5858 5856 5855 5854 5852 5851 5850 5849 5849 5848 5848 5848 5847 5847 5846 5846 5846 5846 5846 5846 5846 5846 5846 5846 5846 5845 5845 5845 5846 5846 5846 5846 5846
5866 5865 5864 5863 5862 5861 5860 5859 5857 5856 5855 5854 5853 5852 5850 5849 5848 5847 5846 5846 5846 5846 5845 5845 5844 5844 5844 5844 5844 5844 5844 5845 5845 5845 5844 5844 5843 5843 5843 5843 5843 5843 5843
5863 5862 5861 5860 5859 5858 5857 5856 5855 5854 5853 5852 5850 5849 5848 5847 5846 5845 5844 5844 5844 5843 5843 5843 5842 5842 5842 5842 5842 5842 5842 5842 5843 5843 5843 5842 5842 5841 5841 5841 5841 5841 5841
5860 5859 5858 5857 5857 5855 5854 5853 5852 5851 5850 5849 5848 5846 5845 5844 5843 5843 5842 5842 5841 5841 5841 5841 5840 5840 5840 5840 5840 5840 5840 5840 5840 5840 5840 5840 5840 5839 5839 5839 5839 5838 5838